Tracking 19795 objects as of 20-Jul-2019
HD Live streaming from Space Station
objects crossing your sky now

SL-3 R/B

Track SL-3 R/B now!
10-day predictions


NORAD ID: 13121
Int'l Code: 1982-027B
Perigee: 524.5 km
Apogee: 569.9 km
Inclination: 81.2 °
Period: 95.4 minutes
Semi major axis: 6918 km
RCS: 5.6899 m2 (large)
Launch date: March 31, 1982
Source: Commonwealth of Independent States (former USSR) (CIS)
Launch site: PLESETSK MISSILE AND SPACE COMPLEX (PKMTR)

Note: This is a ROCKET BODY
aabbcc
Your satellite tracking list
Your tracking list is empty




NASA's NSSDC Master Catalog

Two Line Element Set (TLE):
1 13121U 82027B   19200.85156603 -.00000359 +00000-0 -24197-4 0  9999
2 13121 081.1660 322.7008 0032785 160.7418 199.5055 15.08745013031682
Source of the keplerian elements: AFSPC